Location: Texas Valley
(42.4862°N, 75.9730°W)
Time: 01:34:31
(UTC+00:00)

Envisat - Visible Passes

Search period start: 29 May 2023 00:00
Search period end: 08 June 2023 00:00
Orbit: 763 x 765 km, 98.2° (Epoch: 28 May)

Date Brightness Start Highest point End Pass type
(mag) Time Alt. Az. Time Alt. Az. Time Alt. Az.
30 May 4.4 08:21:13 10° NNE 08:25:54 36° E 08:30:33 10° SSE visible
31 May 5.5 07:45:15 10° NE 07:48:27 17° E 07:51:37 10° SE visible
01 Jun 3.5 08:45:40 10° NNE 08:50:43 63° E 08:55:44 10° S visible
02 Jun 4.8 08:09:02 10° NE 08:13:24 28° E 08:17:44 10° SSE visible
03 Jun 5.6 07:33:44 10° ENE 07:35:53 13° E 07:38:01 10° ESE visible
04 Jun 3.9 08:33:20 10° NNE 08:38:15 48° E 08:43:08 10° S visible
05 Jun 5.2 07:56:58 10° NE 08:00:52 22° E 08:04:45 10° SE visible
07 Jun 4.4 08:21:04 10° NNE 08:25:46 37° E 08:30:26 10° SSE visible
